iso_date,epoch_date,Year,Hour,Min,DOY,POS_DOY,Lat,Lon,BP,Ts,Ta,has_bp,has_ts,has_ta,BuoyID,Buoy_Type,Buoy_Owner,Logistics,Hemisphere
2015-03-25T21:00:00Z,1427317200,2015,21,0,84.875,193.0,71.2612,-154.0624,-999.00,-999.00,-999.0,yes,yes,yes,300234062832830,IMB,CRREL,unknown,North
2015-03-25T22:00:28Z,1427320829,2015,22,0,84.917,193.0,71.2612,-154.0624,-999.00,-999.00,-999.0,yes,yes,yes,300234062832830,IMB,CRREL,unknown,North
2015-03-25T22:59:31Z,1427324371,2015,23,0,84.958,193.0,71.2612,-154.0624,-999.00,-999.00,-999.0,yes,yes,yes,300234062832830,IMB,CRREL,unknown,North
2015-03-26T00:00:00Z,1427328000,2015,0,0,85.0,85.0,73.8213,-149.1945,1013.38,-16.69,-21.38,yes,yes,yes,300234062832830,IMB,CRREL,unknown,North
2015-03-26T01:00:28Z,1427331629,2015,1,0,85.042,85.0,73.8213,-149.1945,1012.83,-20.63,-999.0,yes,yes,yes,300234062832830,IMB,CRREL,unknown,North
2015-03-26T01:59:31Z,1427335171,2015,2,0,85.083,85.0,73.8213,-149.1945,1012.3,-21.02,-999.0,yes,yes,yes,300234062832830,IMB,CRREL,unknown,North
2015-03-26T03:00:00Z,1427338800,2015,3,0,85.125,85.0,73.8213,-149.1945,1012.22,-21.61,-999.0,yes,yes,yes,300234062832830,IMB,CRREL,unknown,North
2015-03-26T04:00:28Z,1427342429,2015,4,0,85.167,85.167,73.8229,-149.2344,1012.22,-19.85,-23.31,yes,yes,yes,300234062832830,IMB,CRREL,unknown,North
2015-03-26T04:59:31Z,1427345971,2015,5,0,85.208,85.167,73.8229,-149.2344,1012.01,-24.41,-999.0,yes,yes,yes,300234062832830,IMB,CRREL,unknown,North
2015-03-26T06:00:00Z,1427349600,2015,6,0,85.25,85.167,73.8229,-149.2344,1012.01,-25.72,-999.0,yes,yes,yes,300234062832830,IMB,CRREL,unknown,North
2015-03-26T07:00:28Z,1427353229,2015,7,0,85.292,85.167,73.8229,-149.2344,1011.88,-25.58,-999.0,yes,yes,yes,300234062832830,IMB,CRREL,unknown,North
2015-03-26T07:59:31Z,1427356771,2015,8,0,85.333,85.333,73.8248,-149.2666,1011.74,-25.8,-25.51,yes,yes,yes,300234062832830,IMB,CRREL,unknown,North
2015-03-26T09:00:00Z,1427360400,2015,9,0,85.375,85.333,73.8248,-149.2666,1011.74,-26.52,-999.0,yes,yes,yes,300234062832830,IMB,CRREL,unknown,North
2015-03-26T10:00:28Z,1427364029,2015,10,0,85.417,85.333,73.8248,-149.2666,1011.74,-26.48,-999.0,yes,yes,yes,300234062832830,IMB,CRREL,unknown,North
2015-03-26T10:59:31Z,1427367571,2015,11,0,85.458,85.333,73.8248,-149.2666,1011.34,-26.8,-999.0,yes,yes,yes,300234062832830,IMB,CRREL,unknown,North
2015-03-26T12:00:00Z,1427371200,2015,12,0,85.5,85.5,73.8263,-149.2959,1011.2,-27.19,-26.77,yes,yes,yes,300234062832830,IMB,CRREL,unknown,North
2015-03-26T13:00:28Z,1427374829,2015,13,0,85.542,85.5,73.8263,-149.2959,1011.2,-27.12,-999.0,yes,yes,yes,300234062832830,IMB,CRREL,unknown,North
2015-03-26T13:59:31Z,1427378371,2015,14,0,85.583,85.5,73.8263,-149.2959,1010.93,-26.77,-999.0,yes,yes,yes,300234062832830,IMB,CRREL,unknown,North
2015-03-26T15:00:00Z,1427382000,2015,15,0,85.625,85.5,73.8263,-149.2959,1010.86,-27.16,-999.0,yes,yes,yes,300234062832830,IMB,CRREL,unknown,North
2015-03-26T16:00:28Z,1427385629,2015,16,0,85.667,85.667,73.8271,-149.3295,1010.66,-26.68,-26.59,yes,yes,yes,300234062832830,IMB,CRREL,unknown,North
2015-03-26T16:59:31Z,1427389171,2015,17,0,85.708,85.667,73.8271,-149.3295,1010.66,-26.11,-999.0,yes,yes,yes,300234062832830,IMB,CRREL,unknown,North
2015-03-26T18:00:00Z,1427392800,2015,18,0,85.75,85.667,73.8271,-149.3295,1010.52,-25.79,-999.0,yes,yes,yes,300234062832830,IMB,CRREL,unknown,North
2015-03-26T19:00:28Z,1427396429,2015,19,0,85.792,85.667,73.8271,-149.3295,1010.39,-24.94,-999.0,yes,yes,yes,300234062832830,IMB,CRREL,unknown,North
2015-03-26T19:59:31Z,1427399971,2015,20,0,85.833,85.833,73.8286,-149.3709,1010.39,-18.4,-24.34,yes,yes,yes,300234062832830,IMB,CRREL,unknown,North
2015-03-26T21:00:00Z,1427403600,2015,21,0,85.875,85.833,73.8286,-149.3709,1010.66,-23.61,-999.0,yes,yes,yes,300234062832830,IMB,CRREL,unknown,North
2015-03-26T22:00:28Z,1427407229,2015,22,0,85.917,85.833,73.8286,-149.3709,1010.52,-22.93,-999.0,yes,yes,yes,300234062832830,IMB,CRREL,unknown,North
2015-03-26T22:59:31Z,1427410771,2015,23,0,85.958,85.833,73.8286,-149.3709,1010.12,-22.31,-999.0,yes,yes,yes,300234062832830,IMB,CRREL,unknown,North
2015-03-27T00:00:00Z,1427414400,2015,0,0,86.0,86.0,73.8307,-149.4243,1009.85,-17.32,-21.8,yes,yes,yes,300234062832830,IMB,CRREL,unknown,North
2015-03-27T01:00:28Z,1427418029,2015,1,0,86.042,86.0,73.8307,-149.4243,1009.85,-20.84,-999.0,yes,yes,yes,300234062832830,IMB,CRREL,unknown,North
2015-03-27T01:59:31Z,1427421571,2015,2,0,86.083,86.0,73.8307,-149.4243,1009.78,-21.14,-999.0,yes,yes,yes,300234062832830,IMB,CRREL,unknown,North
2015-03-27T03:00:00Z,1427425200,2015,3,0,86.125,86.0,73.8307,-149.4243,1009.64,-21.46,-999.0,yes,yes,yes,300234062832830,IMB,CRREL,unknown,North
2015-03-27T04:00:28Z,1427428829,2015,4,0,86.167,86.167,73.8325,-149.4824,1009.98,-20.35,-21.92,yes,yes,yes,300234062832830,IMB,CRREL,unknown,North
2015-03-27T04:59:31Z,1427432371,2015,5,0,86.208,86.167,73.8325,-149.4824,1009.98,-23.28,-999.0,yes,yes,yes,300234062832830,IMB,CRREL,unknown,North
2015-03-27T06:00:00Z,1427436000,2015,6,0,86.25,86.167,73.8325,-149.4824,1009.71,-23.25,-999.0,yes,yes,yes,300234062832830,IMB,CRREL,unknown,North
2015-03-27T07:00:28Z,1427439629,2015,7,0,86.292,86.167,73.8325,-149.4824,1009.78,-23.57,-999.0,yes,yes,yes,300234062832830,IMB,CRREL,unknown,North
2015-03-27T07:59:31Z,1427443171,2015,8,0,86.333,86.333,73.8341,-149.5376,1009.92,-23.96,-23.53,yes,yes,yes,300234062832830,IMB,CRREL,unknown,North
2015-03-27T09:00:00Z,1427446800,2015,9,0,86.375,86.333,73.8341,-149.5376,1009.85,-21.77,-999.0,yes,yes,yes,300234062832830,IMB,CRREL,unknown,North
2015-03-27T10:00:28Z,1427450429,2015,10,0,86.417,86.333,73.8341,-149.5376,1009.85,-21.68,-999.0,yes,yes,yes,300234062832830,IMB,CRREL,unknown,North
2015-03-27T10:59:31Z,1427453971,2015,11,0,86.458,86.333,73.8341,-149.5376,1009.71,-21.89,-999.0,yes,yes,yes,300234062832830,IMB,CRREL,unknown,North
2015-03-27T12:00:00Z,1427457600,2015,12,0,86.5,86.5,73.8347,-149.5975,1009.58,-21.56,-21.95,yes,yes,yes,300234062832830,IMB,CRREL,unknown,North
2015-03-27T13:00:28Z,1427461229,2015,13,0,86.542,86.5,73.8347,-149.5975,1009.58,-22.07,-999.0,yes,yes,yes,300234062832830,IMB,CRREL,unknown,North
2015-03-27T13:59:31Z,1427464771,2015,14,0,86.583,86.5,73.8347,-149.5975,1009.78,-22.34,-999.0,yes,yes,yes,300234062832830,IMB,CRREL,unknown,North
2015-03-27T15:00:00Z,1427468400,2015,15,0,86.625,86.5,73.8347,-149.5975,1009.78,-22.78,-999.0,yes,yes,yes,300234062832830,IMB,CRREL,unknown,North
2015-03-27T16:00:28Z,1427472029,2015,16,0,86.667,86.667,73.8342,-149.6588,1010.05,-22.19,-22.8,yes,yes,yes,300234062832830,IMB,CRREL,unknown,North
2015-03-27T16:59:31Z,1427475571,2015,17,0,86.708,86.667,73.8342,-149.6588,1010.19,-23.22,-999.0,yes,yes,yes,300234062832830,IMB,CRREL,unknown,North
2015-03-27T18:00:00Z,1427479200,2015,18,0,86.75,86.667,73.8342,-149.6588,1010.12,-23.34,-999.0,yes,yes,yes,300234062832830,IMB,CRREL,unknown,North
2015-03-27T19:00:28Z,1427482829,2015,19,0,86.792,86.667,73.8342,-149.6588,1010.25,-23.25,-999.0,yes,yes,yes,300234062832830,IMB,CRREL,unknown,North
2015-03-27T19:59:31Z,1427486371,2015,20,0,86.833,86.833,73.8337,-149.7244,1010.46,-20.61,-22.9,yes,yes,yes,300234062832830,IMB,CRREL,unknown,North
2015-03-27T21:00:00Z,1427490000,2015,21,0,86.875,86.833,73.8337,-149.7244,1010.52,-21.68,-999.0,yes,yes,yes,300234062832830,IMB,CRREL,unknown,North
2015-03-27T22:00:28Z,1427493629,2015,22,0,86.917,86.833,73.8337,-149.7244,1010.66,-21.02,-999.0,yes,yes,yes,300234062832830,IMB,CRREL,unknown,North
2015-03-27T22:59:31Z,1427497171,2015,23,0,86.958,86.833,73.8337,-149.7244,1010.66,-20.75,-999.0,yes,yes,yes,300234062832830,IMB,CRREL,unknown,North
2015-03-28T00:00:00Z,1427500800,2015,0,0,87.0,87.0,73.8334,-149.7975,1010.93,-17.01,-20.2,yes,yes,yes,300234062832830,IMB,CRREL,unknown,North
2015-03-28T01:00:28Z,1427504429,2015,1,0,87.042,87.0,73.8334,-149.7975,1011.13,-19.77,-999.0,yes,yes,yes,300234062832830,IMB,CRREL,unknown,North
2015-03-28T01:59:31Z,1427507971,2015,2,0,87.083,87.0,73.8334,-149.7975,1011.2,-20.15,-999.0,yes,yes,yes,300234062832830,IMB,CRREL,unknown,North
2015-03-28T03:00:00Z,1427511600,2015,3,0,87.125,87.0,73.8334,-149.7975,1011.68,-20.52,-999.0,yes,yes,yes,300234062832830,IMB,CRREL,unknown,North
2015-03-28T04:00:28Z,1427515229,2015,4,0,87.167,87.167,73.832,-149.8661,1012.08,-20.1,-20.52,yes,yes,yes,300234062832830,IMB,CRREL,unknown,North
2015-03-28T04:59:31Z,1427518771,2015,5,0,87.208,87.167,73.832,-149.8661,1012.49,-21.08,-999.0,yes,yes,yes,300234062832830,IMB,CRREL,unknown,North
2015-03-28T06:00:00Z,1427522400,2015,6,0,87.25,87.167,73.832,-149.8661,1012.56,-21.61,-999.0,yes,yes,yes,300234062832830,IMB,CRREL,unknown,North
2015-03-28T07:00:28Z,1427526029,2015,7,0,87.292,87.167,73.832,-149.8661,1013.1,-21.86,-999.0,yes,yes,yes,300234062832830,IMB,CRREL,unknown,North
2015-03-28T07:59:31Z,1427529571,2015,8,0,87.333,87.333,73.8302,-149.9303,1013.64,-22.25,-22.19,yes,yes,yes,300234062832830,IMB,CRREL,unknown,North
2015-03-28T09:00:00Z,1427533200,2015,9,0,87.375,87.333,73.8302,-149.9303,1013.91,-22.62,-999.0,yes,yes,yes,300234062832830,IMB,CRREL,unknown,North
2015-03-28T10:00:28Z,1427536829,2015,10,0,87.417,87.333,73.8302,-149.9303,1014.18,-23.0,-999.0,yes,yes,yes,300234062832830,IMB,CRREL,unknown,North
2015-03-28T10:59:31Z,1427540371,2015,11,0,87.458,87.333,73.8302,-149.9303,1014.45,-22.84,-999.0,yes,yes,yes,300234062832830,IMB,CRREL,unknown,North
2015-03-28T12:00:00Z,1427544000,2015,12,0,87.5,87.5,73.8277,-149.9868,1014.72,-23.14,-23.28,yes,yes,yes,300234062832830,IMB,CRREL,unknown,North
2015-03-28T13:00:28Z,1427547629,2015,13,0,87.542,87.5,73.8277,-149.9868,1015.06,-23.59,-999.0,yes,yes,yes,300234062832830,IMB,CRREL,unknown,North
2015-03-28T13:59:31Z,1427551171,2015,14,0,87.583,87.5,73.8277,-149.9868,1015.53,-23.47,-999.0,yes,yes,yes,300234062832830,IMB,CRREL,unknown,North
2015-03-28T15:00:00Z,1427554800,2015,15,0,87.625,87.5,73.8277,-149.9868,1016.21,-23.92,-999.0,yes,yes,yes,300234062832830,IMB,CRREL,unknown,North
2015-03-28T16:00:28Z,1427558429,2015,16,0,87.667,87.667,73.8234,-150.0424,1016.48,-24.09,-24.54,yes,yes,yes,300234062832830,IMB,CRREL,unknown,North
2015-03-28T16:59:31Z,1427561971,2015,17,0,87.708,87.667,73.8234,-150.0424,1016.82,-24.74,-999.0,yes,yes,yes,300234062832830,IMB,CRREL,unknown,North
2015-03-28T18:00:00Z,1427565600,2015,18,0,87.75,87.667,73.8234,-150.0424,1017.09,-24.13,-999.0,yes,yes,yes,300234062832830,IMB,CRREL,unknown,North
2015-03-28T19:00:28Z,1427569229,2015,19,0,87.792,87.667,73.8234,-150.0424,1017.63,-23.98,-999.0,yes,yes,yes,300234062832830,IMB,CRREL,unknown,North
2015-03-28T19:59:31Z,1427572771,2015,20,0,87.833,87.833,73.8196,-150.1042,1018.04,-19.72,-22.96,yes,yes,yes,300234062832830,IMB,CRREL,unknown,North
2015-03-28T21:00:00Z,1427576400,2015,21,0,87.875,87.833,73.8196,-150.1042,1018.31,-22.16,-999.0,yes,yes,yes,300234062832830,IMB,CRREL,unknown,North
2015-03-28T22:00:28Z,1427580029,2015,22,0,87.917,87.833,73.8196,-150.1042,1018.78,-21.98,-999.0,yes,yes,yes,300234062832830,IMB,CRREL,unknown,North
2015-03-28T22:59:31Z,1427583571,2015,23,0,87.958,87.833,73.8196,-150.1042,1019.05,-21.68,-999.0,yes,yes,yes,300234062832830,IMB,CRREL,unknown,North
2015-03-29T00:00:00Z,1427587200,2015,0,0,88.0,88.0,73.8161,-150.1726,1019.26,-17.45,-21.2,yes,yes,yes,300234062832830,IMB,CRREL,unknown,North
2015-03-29T01:00:28Z,1427590829,2015,1,0,88.042,88.0,73.8161,-150.1726,1019.32,-21.29,-999.0,yes,yes,yes,300234062832830,IMB,CRREL,unknown,North
2015-03-29T01:59:31Z,1427594371,2015,2,0,88.083,88.0,73.8161,-150.1726,1019.73,-21.52,-999.0,yes,yes,yes,300234062832830,IMB,CRREL,unknown,North
2015-03-29T03:00:00Z,1427598000,2015,3,0,88.125,88.0,73.8161,-150.1726,1020.0,-22.19,-999.0,yes,yes,yes,300234062832830,IMB,CRREL,unknown,North
2015-03-29T04:00:28Z,1427601629,2015,4,0,88.167,88.167,73.812,-150.2388,1020.41,-20.86,-22.65,yes,yes,yes,300234062832830,IMB,CRREL,unknown,North
2015-03-29T04:59:31Z,1427605171,2015,5,0,88.208,88.167,73.812,-150.2388,1020.88,-23.25,-999.0,yes,yes,yes,300234062832830,IMB,CRREL,unknown,North
2015-03-29T06:00:00Z,1427608800,2015,6,0,88.25,88.167,73.812,-150.2388,1021.08,-23.5,-999.0,yes,yes,yes,300234062832830,IMB,CRREL,unknown,North
2015-03-29T07:00:28Z,1427612429,2015,7,0,88.292,88.167,73.812,-150.2388,1021.76,-23.92,-999.0,yes,yes,yes,300234062832830,IMB,CRREL,unknown,North
2015-03-29T07:59:31Z,1427615971,2015,8,0,88.333,88.333,73.8087,-150.2975,1021.83,-24.53,-24.15,yes,yes,yes,300234062832830,IMB,CRREL,unknown,North
2015-03-29T09:00:00Z,1427619600,2015,9,0,88.375,88.333,73.8087,-150.2975,1022.3,-24.44,-999.0,yes,yes,yes,300234062832830,IMB,CRREL,unknown,North
2015-03-29T10:00:28Z,1427623229,2015,10,0,88.417,88.333,73.8087,-150.2975,1022.71,-24.57,-999.0,yes,yes,yes,300234062832830,IMB,CRREL,unknown,North
2015-03-29T10:59:31Z,1427626771,2015,11,0,88.458,88.333,73.8087,-150.2975,1023.25,-24.68,-999.0,yes,yes,yes,300234062832830,IMB,CRREL,unknown,North
2015-03-29T12:00:00Z,1427630400,2015,12,0,88.5,88.5,73.8055,-150.3479,1023.52,-25.54,-25.07,yes,yes,yes,300234062832830,IMB,CRREL,unknown,North
2015-03-29T13:00:28Z,1427634029,2015,13,0,88.542,88.5,73.8055,-150.3479,1023.86,-25.92,-999.0,yes,yes,yes,300234062832830,IMB,CRREL,unknown,North
2015-03-29T13:59:31Z,1427637571,2015,14,0,88.583,88.5,73.8055,-150.3479,1024.2,-26.41,-999.0,yes,yes,yes,300234062832830,IMB,CRREL,unknown,North
2015-03-29T15:00:00Z,1427641200,2015,15,0,88.625,88.5,73.8055,-150.3479,1024.6,-26.8,-999.0,yes,yes,yes,300234062832830,IMB,CRREL,unknown,North
2015-03-29T16:00:28Z,1427644829,2015,16,0,88.667,88.667,73.801,-150.3952,1024.74,-27.13,-27.02,yes,yes,yes,300234062832830,IMB,CRREL,unknown,North
2015-03-29T16:59:31Z,1427648371,2015,17,0,88.708,88.667,73.801,-150.3952,1025.01,-26.8,-999.0,yes,yes,yes,300234062832830,IMB,CRREL,unknown,North
2015-03-29T18:00:00Z,1427652000,2015,18,0,88.75,88.667,73.801,-150.3952,1025.28,-26.13,-999.0,yes,yes,yes,300234062832830,IMB,CRREL,unknown,North
2015-03-29T19:00:28Z,1427655629,2015,19,0,88.792,88.667,73.801,-150.3952,1025.41,-25.48,-999.0,yes,yes,yes,300234062832830,IMB,CRREL,unknown,North
2015-03-29T19:59:31Z,1427659171,2015,20,0,88.833,88.833,73.7971,-150.4521,1025.69,-19.34,-24.77,yes,yes,yes,300234062832830,IMB,CRREL,unknown,North
2015-03-29T21:00:00Z,1427662800,2015,21,0,88.875,88.833,73.7971,-150.4521,1025.96,-24.34,-999.0,yes,yes,yes,300234062832830,IMB,CRREL,unknown,North
2015-03-29T22:00:28Z,1427666429,2015,22,0,88.917,88.833,73.7971,-150.4521,1026.09,-24.05,-999.0,yes,yes,yes,300234062832830,IMB,CRREL,unknown,North
2015-03-29T22:59:31Z,1427669971,2015,23,0,88.958,88.833,73.7971,-150.4521,1026.23,-23.6,-999.0,yes,yes,yes,300234062832830,IMB,CRREL,unknown,North
2015-03-30T00:00:00Z,1427673600,2015,0,0,89.0,89.0,73.7953,-150.5199,1026.29,-18.77,-23.0,yes,yes,yes,300234062832830,IMB,CRREL,unknown,North
2015-03-30T01:00:28Z,1427677229,2015,1,0,89.042,89.0,73.7953,-150.5199,1026.16,-22.65,-999.0,yes,yes,yes,300234062832830,IMB,CRREL,unknown,North
2015-03-30T01:59:31Z,1427680771,2015,2,0,89.083,89.0,73.7953,-150.5199,1026.36,-22.53,-999.0,yes,yes,yes,300234062832830,IMB,CRREL,unknown,North
2015-03-30T03:00:00Z,1427684400,2015,3,0,89.125,89.0,73.7953,-150.5199,1026.63,-23.0,-999.0,yes,yes,yes,300234062832830,IMB,CRREL,unknown,North
2015-03-30T04:00:28Z,1427688029,2015,4,0,89.167,89.167,73.7945,-150.5839,1026.63,-21.43,-23.89,yes,yes,yes,300234062832830,IMB,CRREL,unknown,North
2015-03-30T04:59:31Z,1427691571,2015,5,0,89.208,89.167,73.7945,-150.5839,1026.9,-24.54,-999.0,yes,yes,yes,300234062832830,IMB,CRREL,unknown,North
2015-03-30T06:00:00Z,1427695200,2015,6,0,89.25,89.167,73.7945,-150.5839,1026.9,-25.04,-999.0,yes,yes,yes,300234062832830,IMB,CRREL,unknown,North
2015-03-30T07:00:28Z,1427698829,2015,7,0,89.292,89.167,73.7945,-150.5839,1027.11,-25.54,-999.0,yes,yes,yes,300234062832830,IMB,CRREL,unknown,North
2015-03-30T07:59:31Z,1427702371,2015,8,0,89.333,89.333,73.7934,-150.6457,1027.45,-26.37,-25.98,yes,yes,yes,300234062832830,IMB,CRREL,unknown,North
2015-03-30T09:00:00Z,1427706000,2015,9,0,89.375,89.333,73.7934,-150.6457,1027.72,-26.33,-999.0,yes,yes,yes,300234062832830,IMB,CRREL,unknown,North
2015-03-30T10:00:28Z,1427709629,2015,10,0,89.417,89.333,73.7934,-150.6457,1027.85,-26.62,-999.0,yes,yes,yes,300234062832830,IMB,CRREL,unknown,North
2015-03-30T10:59:31Z,1427713171,2015,11,0,89.458,89.333,73.7934,-150.6457,1028.19,-26.34,-999.0,yes,yes,yes,300234062832830,IMB,CRREL,unknown,North
2015-03-30T12:00:00Z,1427716800,2015,12,0,89.5,89.5,73.7939,-150.7103,1028.12,-27.25,-26.87,yes,yes,yes,300234062832830,IMB,CRREL,unknown,North
2015-03-30T13:00:28Z,1427720429,2015,13,0,89.542,89.5,73.7939,-150.7103,1028.05,-26.13,-999.0,yes,yes,yes,300234062832830,IMB,CRREL,unknown,North
2015-03-30T13:59:31Z,1427723971,2015,14,0,89.583,89.5,73.7939,-150.7103,1028.19,-26.13,-999.0,yes,yes,yes,300234062832830,IMB,CRREL,unknown,North
2015-03-30T15:00:00Z,1427727600,2015,15,0,89.625,89.5,73.7939,-150.7103,1027.99,-26.62,-999.0,yes,yes,yes,300234062832830,IMB,CRREL,unknown,North
2015-03-30T16:00:28Z,1427731229,2015,16,0,89.667,89.667,73.7935,-150.7717,1027.99,-26.62,-26.41,yes,yes,yes,300234062832830,IMB,CRREL,unknown,North
2015-03-30T16:59:31Z,1427734771,2015,17,0,89.708,89.667,73.7935,-150.7717,1027.99,-25.99,-999.0,yes,yes,yes,300234062832830,IMB,CRREL,unknown,North
2015-03-30T18:00:00Z,1427738400,2015,18,0,89.75,89.667,73.7935,-150.7717,1028.05,-25.11,-999.0,yes,yes,yes,300234062832830,IMB,CRREL,unknown,North
2015-03-30T19:00:28Z,1427742029,2015,19,0,89.792,89.667,73.7935,-150.7717,1027.99,-23.37,-999.0,yes,yes,yes,300234062832830,IMB,CRREL,unknown,North
2015-03-30T19:59:31Z,1427745571,2015,20,0,89.833,89.833,73.7942,-150.851,1027.85,-18.52,-21.92,yes,yes,yes,300234062832830,IMB,CRREL,unknown,North
2015-03-30T21:00:00Z,1427749200,2015,21,0,89.875,89.833,73.7942,-150.851,1027.99,-20.73,-999.0,yes,yes,yes,300234062832830,IMB,CRREL,unknown,North
2015-03-30T22:00:28Z,1427752829,2015,22,0,89.917,89.833,73.7942,-150.851,1027.99,-19.66,-999.0,yes,yes,yes,300234062832830,IMB,CRREL,unknown,North
2015-03-30T22:59:31Z,1427756371,2015,23,0,89.958,89.833,73.7942,-150.851,1027.99,-18.39,-999.0,yes,yes,yes,300234062832830,IMB,CRREL,unknown,North
2015-03-31T00:00:00Z,1427760000,2015,0,0,90.0,90.0,73.8025,-150.9504,1027.92,-15.3,-18.18,yes,yes,yes,300234062832830,IMB,CRREL,unknown,North
2015-03-31T01:00:28Z,1427763629,2015,1,0,90.042,90.0,73.8025,-150.9504,1027.65,-17.8,-999.0,yes,yes,yes,300234062832830,IMB,CRREL,unknown,North
2015-03-31T01:59:31Z,1427767171,2015,2,0,90.083,90.0,73.8025,-150.9504,1027.72,-17.77,-999.0,yes,yes,yes,300234062832830,IMB,CRREL,unknown,North
2015-03-31T03:00:00Z,1427770800,2015,3,0,90.125,90.0,73.8025,-150.9504,1027.72,-17.91,-999.0,yes,yes,yes,300234062832830,IMB,CRREL,unknown,North
2015-03-31T04:00:28Z,1427774429,2015,4,0,90.167,90.167,73.8154,-151.0484,1027.85,-16.82,-18.18,yes,yes,yes,300234062832830,IMB,CRREL,unknown,North
2015-03-31T04:59:31Z,1427777971,2015,5,0,90.208,90.167,73.8154,-151.0484,1028.12,-18.79,-999.0,yes,yes,yes,300234062832830,IMB,CRREL,unknown,North
2015-03-31T06:00:00Z,1427781600,2015,6,0,90.25,90.167,73.8154,-151.0484,1028.46,-19.23,-999.0,yes,yes,yes,300234062832830,IMB,CRREL,unknown,North
2015-03-31T07:00:28Z,1427785229,2015,7,0,90.292,90.167,73.8154,-151.0484,1028.6,-19.32,-999.0,yes,yes,yes,300234062832830,IMB,CRREL,unknown,North
2015-03-31T07:59:31Z,1427788771,2015,8,0,90.333,90.333,73.8291,-151.1443,1028.66,-20.29,-19.46,yes,yes,yes,300234062832830,IMB,CRREL,unknown,North
2015-03-31T09:00:00Z,1427792400,2015,9,0,90.375,90.333,73.8291,-151.1443,1029.07,-19.66,-999.0,yes,yes,yes,300234062832830,IMB,CRREL,unknown,North
2015-03-31T10:00:28Z,1427796029,2015,10,0,90.417,90.333,73.8291,-151.1443,1029.34,-20.7,-999.0,yes,yes,yes,300234062832830,IMB,CRREL,unknown,North
2015-03-31T10:59:31Z,1427799571,2015,11,0,90.458,90.333,73.8291,-151.1443,1029.54,-21.38,-999.0,yes,yes,yes,300234062832830,IMB,CRREL,unknown,North
2015-03-31T12:00:00Z,1427803200,2015,12,0,90.5,90.5,73.8408,-151.2329,1029.54,-22.06,-21.4,yes,yes,yes,300234062832830,IMB,CRREL,unknown,North
2015-03-31T13:00:28Z,1427806829,2015,13,0,90.542,90.5,73.8408,-151.2329,1029.61,-21.68,-999.0,yes,yes,yes,300234062832830,IMB,CRREL,unknown,North
2015-03-31T13:59:31Z,1427810371,2015,14,0,90.583,90.5,73.8408,-151.2329,1029.68,-22.07,-999.0,yes,yes,yes,300234062832830,IMB,CRREL,unknown,North
2015-03-31T15:00:00Z,1427814000,2015,15,0,90.625,90.5,73.8408,-151.2329,1030.02,-22.68,-999.0,yes,yes,yes,300234062832830,IMB,CRREL,unknown,North
2015-03-31T16:00:28Z,1427817629,2015,16,0,90.667,90.667,73.8476,-151.31,1029.95,-23.26,-23.18,yes,yes,yes,300234062832830,IMB,CRREL,unknown,North
2015-03-31T16:59:31Z,1427821171,2015,17,0,90.708,90.667,73.8476,-151.31,1030.15,-23.37,-999.0,yes,yes,yes,300234062832830,IMB,CRREL,unknown,North
2015-03-31T18:00:00Z,1427824800,2015,18,0,90.75,90.667,73.8476,-151.31,1030.08,-23.22,-999.0,yes,yes,yes,300234062832830,IMB,CRREL,unknown,North
2015-03-31T19:00:28Z,1427828429,2015,19,0,90.792,90.667,73.8476,-151.31,1029.88,-22.78,-999.0,yes,yes,yes,300234062832830,IMB,CRREL,unknown,North
2015-03-31T19:59:31Z,1427831971,2015,20,0,90.833,90.833,73.8539,-151.4011,1030.15,-18.84,-22.41,yes,yes,yes,300234062832830,IMB,CRREL,unknown,North
2015-03-31T21:00:00Z,1427835600,2015,21,0,90.875,90.833,73.8539,-151.4011,1030.36,-22.44,-999.0,yes,yes,yes,300234062832830,IMB,CRREL,unknown,North
2015-03-31T22:00:28Z,1427839229,2015,22,0,90.917,90.833,73.8539,-151.4011,1030.56,-22.01,-999.0,yes,yes,yes,300234062832830,IMB,CRREL,unknown,North
2015-03-31T22:59:31Z,1427842771,2015,23,0,90.958,90.833,73.8539,-151.4011,1030.49,-21.49,-999.0,yes,yes,yes,300234062832830,IMB,CRREL,unknown,North
2015-04-01T00:00:00Z,1427846400,2015,0,0,91.0,91.0,73.8639,-151.5065,1030.36,-18.21,-21.46,yes,yes,yes,300234062832830,IMB,CRREL,unknown,North
2015-04-01T01:00:28Z,1427850029,2015,1,0,91.042,91.0,73.8639,-151.5065,1030.36,-21.23,-999.0,yes,yes,yes,300234062832830,IMB,CRREL,unknown,North
2015-04-01T01:59:31Z,1427853571,2015,2,0,91.083,91.0,73.8639,-151.5065,1030.63,-21.29,-999.0,yes,yes,yes,300234062832830,IMB,CRREL,unknown,North
2015-04-01T03:00:00Z,1427857200,2015,3,0,91.125,91.0,73.8639,-151.5065,1030.56,-21.48,-999.0,yes,yes,yes,300234062832830,IMB,CRREL,unknown,North
2015-04-01T04:00:28Z,1427860829,2015,4,0,91.167,91.167,73.8735,-151.6018,1030.56,-19.85,-21.83,yes,yes,yes,300234062832830,IMB,CRREL,unknown,North
2015-04-01T04:59:31Z,1427864371,2015,5,0,91.208,91.167,73.8735,-151.6018,1030.69,-22.5,-999.0,yes,yes,yes,300234062832830,IMB,CRREL,unknown,North
2015-04-01T06:00:00Z,1427868000,2015,6,0,91.25,91.167,73.8735,-151.6018,1030.69,-22.96,-999.0,yes,yes,yes,300234062832830,IMB,CRREL,unknown,North
2015-04-01T07:00:28Z,1427871629,2015,7,0,91.292,91.167,73.8735,-151.6018,1030.83,-23.66,-999.0,yes,yes,yes,300234062832830,IMB,CRREL,unknown,North
2015-04-01T07:59:31Z,1427875171,2015,8,0,91.333,91.333,73.8807,-151.6901,1030.96,-24.53,-24.13,yes,yes,yes,300234062832830,IMB,CRREL,unknown,North
2015-04-01T09:00:00Z,1427878800,2015,9,0,91.375,91.333,73.8807,-151.6901,1031.17,-24.64,-999.0,yes,yes,yes,300234062832830,IMB,CRREL,unknown,North
2015-04-01T10:00:28Z,1427882429,2015,10,0,91.417,91.333,73.8807,-151.6901,1031.1,-24.97,-999.0,yes,yes,yes,300234062832830,IMB,CRREL,unknown,North
2015-04-01T10:59:31Z,1427885971,2015,11,0,91.458,91.333,73.8807,-151.6901,1031.24,-25.24,-999.0,yes,yes,yes,300234062832830,IMB,CRREL,unknown,North
2015-04-01T12:00:00Z,1427889600,2015,12,0,91.5,91.5,73.8861,-151.775,1031.37,-26.05,-25.58,yes,yes,yes,300234062832830,IMB,CRREL,unknown,North
2015-04-01T13:00:28Z,1427893229,2015,13,0,91.542,91.5,73.8861,-151.775,1031.3,-25.85,-999.0,yes,yes,yes,300234062832830,IMB,CRREL,unknown,North
2015-04-01T13:59:31Z,1427896771,2015,14,0,91.583,91.5,73.8861,-151.775,1031.51,-26.16,-999.0,yes,yes,yes,300234062832830,IMB,CRREL,unknown,North
2015-04-01T15:00:00Z,1427900400,2015,15,0,91.625,91.5,73.8861,-151.775,1031.51,-26.52,-999.0,yes,yes,yes,300234062832830,IMB,CRREL,unknown,North